Vertical_Velocity
-0 -1 -1 -0 1 -2 -2 -1 0 4 15 4 7 12 18 28 17 44 4 3 -2 1 1 1 -0 6 9 -8 -6 0 4 1
-0 -0 -1 -1 1 -1 -2 -2 2 6 5 11 -3 -5 -6 0 28 -4 0 9 -0 1 -0 -4 -3 9 2 3 -7 3 0 2
-0 -0 -0 0 -0 -1 -1 -1 -3 0 -1 -2 -4 -1 -3 44 21 11 -2 0 2 1 -0 -1 5 4 3 -3 -8 -4 -2 1
1 -3 1 2 -0 -0 -2 -2 1 1 1 -0 2 2 -14 23 10 9 -4 -3 -3 -0 -0 -6 6 5 5 -10 -3 -0 2 3
-0 0 1 1 -0 -2 -1 -1 1 4 0 6 8 -0 -6 10 16 1 -3 0 2 3 0 -3 8 4 -1 -0 1 -0 -0 2
-0 -2 0 1 -0 -1 -1 -4 -1 3 1 -0 6 1 3 14 15 9 -3 0 -0 1 -1 -3 -0 1 -0 -1 -0 -1 -3 2
2 0 3 -0 -0 -0 -3 -0 -1 -1 -0 -5 10 14 23 16 10 -1 -3 -0 -2 1 1 2 -7 10 2 -0 -3 5 -1 2
-0 1 2 1 -1 -0 -2 1 1 3 -1 -4 -7 4 1 1 0 1 -3 -1 -3 -0 1 -1 -5 9 1 -0 -1 3 -0 1
-2 1 1 1 1 0 -2 -3 -1 1 2 -3 -4 -3 -0 3 2 2 1 -1 1 -4 2 -2 -2 4 1 1 -1 2 0 0
-3 0 -0 2 4 2 0 -1 -1 -2 -0 3 -0 -3 -1 -2 -2 0 2 -2 -4 -2 -3 -2 -4 7 1 3 -2 5 -0 2
-2 2 0 -0 1 0 2 -1 -1 -1 -2 1 2 -2 -4 0 -5 -0 0 -1 -4 2 1 1 -5 5 2 -2 0 2 1 -1
-3 1 -0 -0 1 1 2 0 -0 -1 -1 -1 -1 -1 1 1 -2 -1 -0 5 0 -4 1 0 -4 2 2 -3 6 -2 4 1
-1 3 2 -0 -2 -1 1 3 -1 -2 2 1 1 -1 -1 -6 5 -2 -1 1 4 -2 -0 1 -3 0 9 3 1 3 6 2
-1 1 1 -1 -3 -4 -1 3 1 1 -2 -3 -0 1 -1 4 2 2 -4 3 4 -0 1 4 -1 2 3 5 2 3 3 -0
-1 2 1 -0 0 -3 -3 -4 -4 3 0 -1 -0 -1 -6 -0 1 2 7 0 2 2 3 3 12 5 2 1 -2 2 -2 -0
-1 2 1 -1 -1 1 0 0 -3 -5 -2 3 -1 1 4 -6 0 7 -1 8 0 5 5 1 2 1 1 -1 -1 2 3 1
-1 -0 1 -1 -1 -0 -0 3 2 -1 -3 -4 -3 -3 3 2 3 -0 8 18 7 5 0 1 -0 2 2 0 -1 1 -1 2
-3 -1 2 1 -2 -2 -1 1 2 1 -1 -1 0 2 3 -3 -6 0 1 7 2 2 0 -1 -1 1 1 1 2 -2 -0 0
-2 1 0 -1 -1 -2 -3 -0 -1 -1 -1 1 3 -0 -2 -2 3 2 2 4 4 5 2 3 1 4 -1 -0 -1 -1 -0 1
-2 1 1 -0 0 -0 -2 -3 -1 -3 -3 -5 -1 -5 -1 -1 -1 -1 -2 -2 0 -2 1 -2 -2 1 1 2 3 2 1 1
Height
5781 5779 5778 5776 5775 5773 5771 5770 5768 5766 5763 5764 5767 5763 5770 5772 5772 5777 5784 5788 5793 5797 5802 5807 5810 5815 5819 5817 5819 5825 5827 5829
5776 5775 5773 5771 5770 5769 5767 5765 5762 5759 5758 5759 5755 5760 5764 5770 5772 5773 5779 5786 5789 5793 5798 5802 5804 5811 5814 5814 5816 5822 5823 5827
5771 5769 5768 5766 5765 5765 5763 5760 5758 5753 5752 5752 5751 5753 5758 5755 5769 5772 5777 5782 5785 5790 5794 5796 5802 5806 5810 5810 5812 5816 5820 5824
5765 5764 5763 5762 5760 5759 5757 5754 5752 5749 5746 5744 5745 5745 5753 5755 5765 5770 5774 5778 5781 5786 5791 5792 5798 5803 5805 5804 5810 5815 5817 5819
5762 5760 5759 5757 5755 5754 5752 5750 5748 5746 5743 5741 5741 5742 5751 5755 5760 5765 5770 5775 5779 5783 5787 5789 5796 5799 5802 5804 5807 5811 5814 5816
5759 5757 5755 5752 5751 5749 5747 5745 5743 5743 5741 5740 5738 5743 5750 5749 5758 5761 5766 5771 5776 5779 5781 5785 5788 5797 5801 5800 5803 5807 5809 5812
5754 5752 5750 5748 5746 5745 5743 5742 5740 5740 5739 5739 5741 5743 5748 5751 5754 5759 5763 5766 5770 5773 5778 5781 5783 5792 5796 5796 5799 5803 5806 5809
5748 5749 5747 5744 5741 5740 5740 5739 5738 5737 5737 5738 5739 5742 5745 5749 5753 5757 5758 5762 5765 5769 5774 5777 5778 5785 5790 5791 5794 5798 5802 5805
5744 5746 5743 5741 5738 5736 5735 5735 5734 5734 5736 5738 5739 5740 5744 5747 5751 5754 5756 5760 5763 5765 5767 5772 5772 5780 5785 5786 5789 5793 5796 5799
5742 5742 5739 5737 5735 5733 5732 5731 5731 5730 5729 5732 5737 5739 5741 5744 5746 5750 5752 5756 5759 5761 5764 5768 5768 5776 5779 5781 5783 5787 5789 5792
5739 5739 5736 5733 5732 5729 5728 5727 5726 5726 5726 5727 5729 5733 5736 5739 5741 5744 5746 5751 5754 5756 5760 5763 5763 5770 5773 5776 5777 5780 5783 5784
5736 5735 5732 5730 5728 5726 5723 5721 5720 5720 5721 5724 5725 5727 5729 5733 5735 5736 5739 5742 5746 5750 5754 5757 5758 5763 5767 5770 5772 5773 5776 5777
5732 5731 5730 5727 5725 5722 5719 5717 5716 5715 5715 5717 5720 5721 5721 5722 5729 5729 5732 5735 5738 5742 5745 5751 5752 5756 5763 5764 5765 5764 5768 5766
5728 5728 5727 5724 5722 5720 5716 5714 5712 5711 5711 5712 5714 5716 5717 5719 5721 5724 5726 5728 5731 5735 5739 5745 5747 5750 5754 5757 5757 5758 5758 5759
5725 5725 5723 5721 5719 5717 5715 5713 5710 5707 5707 5708 5709 5711 5711 5711 5714 5717 5721 5722 5726 5730 5735 5739 5742 5744 5746 5749 5749 5752 5750 5752
5721 5721 5720 5719 5716 5714 5712 5711 5709 5705 5704 5704 5704 5703 5703 5704 5707 5711 5714 5718 5721 5726 5730 5733 5734 5737 5738 5739 5740 5743 5744 5748
5717 5717 5717 5716 5713 5712 5710 5709 5708 5706 5702 5701 5699 5699 5699 5700 5702 5705 5709 5713 5717 5720 5722 5724 5727 5729 5731 5731 5733 5735 5737 5740
5713 5713 5713 5712 5711 5710 5708 5706 5705 5704 5702 5700 5699 5699 5699 5699 5700 5702 5705 5709 5712 5714 5716 5717 5720 5722 5724 5726 5727 5728 5731 5734
5708 5709 5709 5709 5708 5707 5706 5704 5703 5701 5701 5698 5696 5696 5697 5699 5701 5702 5704 5706 5709 5712 5714 5715 5716 5718 5720 5720 5721 5725 5726 5729
5702 5704 5706 5705 5706 5705 5704 5702 5701 5700 5699 5698 5696 5694 5696 5699 5701 5702 5703 5705 5707 5708 5709 5711 5712 5714 5715 5717 5717 5720 5722 5724